CAPE
0 0 0 0 0 0 0 0 0 0 0 0 0 0 0 0 0 0 0 0 0 0 0 0 0 0 0 17 322 52 5 11 77 64 227 135 162 312 0 85 181 232 136 162 148
0 0 0 0 0 0 0 0 0 0 0 0 0 0 0 0 0 0 0 0 0 0 0 0 0 0 0 36 127 289 64 63 71 67 97 238 86 79 79 44 135 135 177 105 168
0 0 0 0 0 0 0 0 0 0 0 0 0 0 0 0 0 0 0 0 0 0 0 0 0 0 0 41 12 193 247 144 43 26 104 149 184 176 58 17 102 116 148 140 150
0 0 0 0 0 0 0 0 0 0 0 0 0 0 0 0 0 0 0 0 0 0 0 0 0 0 0 4 11 227 283 389 118 9 5 183 202 129 163 83 83 143 124 180 156
0 0 0 0 0 0 0 0 0 0 0 0 0 0 0 0 0 0 0 0 0 0 0 0 0 0 0 0 31 198 162 167 124 3 10 64 142 240 82 46 121 174 151 135 135
0 0 0 0 0 0 0 0 0 0 0 0 0 0 0 0 0 0 0 0 0 0 0 0 0 0 0 4 92 10 105 132 25 26 68 40 70 204 59 108 148 95 111 129 123
0 0 0 0 0 0 0 0 0 0 0 0 0 0 0 0 0 0 0 0 0 0 0 0 0 0 0 14 154 161 280 290 355 157 84 6 16 142 169 166 72 100 88 84 78
0 0 0 0 0 0 0 0 0 0 0 0 0 0 0 0 0 0 0 0 0 0 0 0 0 0 0 12 5 32 353 332 281 249 14 4 1 59 99 147 95 60 91 103 45
0 0 0 0 0 0 0 0 0 0 0 0 0 0 0 0 0 0 0 0 0 0 0 0 0 0 0 0 22 34 74 63 1 334 35 9 1 0 53 82 126 129 138 169 24
0 0 0 0 0 0 0 0 0 0 0 0 0 0 0 0 0 0 0 0 0 0 0 0 0 0 0 0 12 10 56 68 18 269 79 3 0 0 5 1 60 87 88 122 150
0 0 0 0 0 0 0 0 0 0 0 0 0 0 0 0 0 0 0 0 0 0 0 0 0 0 0 21 6 68 15 4 170 191 0 0 0 0 0 5 54 87 162 146 182
0 0 0 0 0 0 0 0 0 0 0 0 0 0 0 0 0 0 0 0 0 0 0 0 0 0 0 19 13 76 1 8 205 149 189 55 13 10 0 0 9 13 92 167 78
0 0 0 0 0 0 0 0 0 0 0 0 0 0 0 0 0 0 0 0 0 0 0 0 0 0 0 0 0 17 39 72 87 114 117 190 68 2 0 11 6 2 29 74 74
0 0 0 0 0 0 0 0 0 0 0 0 0 0 0 0 0 0 0 0 0 0 0 0 3 0 0 0 0 0 33 35 49 50 82 62 57 27 0 8 2 0 4 34 55
0 0 0 0 0 0 0 0 0 0 0 0 0 0 0 0 0 0 0 0 0 0 0 0 0 0 0 0 0 1 3 6 1 35 30 33 32 164 1 0 0 0 0 5 13
0 0 0 0 0 0 0 0 0 0 0 0 0 0 0 0 0 0 0 0 0 0 0 0 0 0 0 0 0 0 2 0 4 3 11 27 41 201 61 19 5 6 0 2 4
0 0 0 0 0 0 0 0 0 0 0 0 0 0 0 0 0 0 0 0 0 0 0 0 0 0 0 0 0 0 0 0 0 13 5 85 20 141 125 225 60 27 0 0 1
0 0 0 0 0 0 0 0 0 0 0 0 0 0 0 0 0 0 0 0 0 0 0 1 0 0 0 0 0 0 0 0 0 2 0 8 65 70 9 174 68 20 0 0 31
0 0 0 0 0 0 0 0 0 8 0 0 0 0 0 0 0 0 0 2 0 0 0 21 1 0 0 0 0 6 3 0 0 4 0 12 46 71 82 155 98 11 11 7 75
0 0 0 0 0 0 0 0 0 0 0 0 0 0 0 0 0 0 0 0 0 0 0 0 3 3 0 0 0 0 0 35 55 48 29 137 49 4 114 286 169 86 59 37 89
0 0 0 0 0 0 0 0 0 0 0 0 0 0 0 0 0 0 15 0 0 0 0 0 0 4 0 0 0 6 0 0 40 0 17 78 34 10 9 73 238 4 14 16 115
0 0 0 0 0 0 0 0 0 0 0 0 0 0 0 1 0 0 5 2 0 0 0 0 0 1 5 31 5 0 1 0 5 71 85 46 23 0 0 0 119 100 70 76 266
0 0 0 0 0 0 0 0 0 4 0 0 0 0 0 0 0 0 0 0 0 0 0 0 0 0 2 18 23 14 10 2 17 35 1 0 3 0 0 333 197 119 71 318 240
0 0 0 0 0 0 0 0 0 0 0 0 0 0 0 0 0 0 0 0 0 0 0 0 0 0 0 0 0 10 20 38 5 39 69 5 0 0 0 77 212 132 6 0 85
0 0 0 0 0 0 0 0 10 0 0 0 0 0 0 0 0 0 0 0 0 0 0 0 0 0 0 0 0 0 0 11 17 0 41 7 0 0 0 3 774 396 23 0 0
0 0 0 0 0 1 0 0 3 3 2 0 0 0 0 0 0 6 0 1 0 0 0 0 0 0 0 0 0 0 0 0 0 0 0 0 0 60 66 105 1068 958 814 313 0
0 0 0 0 0 0 0 0 0 2 5 0 0 0 0 0 0 0 0 0 0 0 0 0 0 0 0 0 0 0 0 0 1 0 6 3 166 0 4 8 880 1008 955 1055 919
CIN
-0 -0 -0 -0 -0 -0 -0 -0 -0 -0 -0 -0 -0 -0 -0 -0 -0 -0 -0 -0 -0 -0 -0 -0 -0 -0 -0 -11 -14 -173 -62 -37 -31 -34 -15 -15 -4 -6 -0 -4 -3 -8 -6 -3 -4
-0 -0 -0 -0 -0 -0 -0 -0 -0 -0 -0 -0 -0 -0 -0 -0 -0 -0 -0 -0 -0 -0 -0 -0 -0 -0 -0 -4 -5 -52 -94 -53 -31 -75 -13 -5 -35 -16 -2 -1 -20 -4 -2 -4 -2
-0 -0 -0 -0 -0 -0 -0 -0 -0 -0 -0 -0 -0 -0 -0 -0 -0 -0 -0 -0 -0 -0 -0 -0 -0 -0 -0 -6 -33 -36 -15 -17 -56 -66 -44 -22 -15 -1 -7 -2 -3 -15 -6 -2 -2
-0 -0 -0 -0 -0 -0 -0 -0 -0 -0 -0 -0 -0 -0 -0 -0 -0 -0 -0 -0 -0 -0 -0 -0 -0 -0 -1 -13 -15 -6 -2 -5 -45 -73 -66 -10 -61 -5 -19 -35 -6 -2 -7 -3 -1
-0 -0 -0 -0 -0 -0 -0 -0 -0 -0 -0 -0 -0 -0 -0 -0 -0 -0 -0 -0 -0 -0 -0 -0 -0 -0 -0 -0 -8 -76 -6 -44 -38 -73 -44 -51 -32 -21 -5 -43 -3 -4 -4 -3 -2
-0 -0 -0 -0 -0 -0 -0 -0 -0 -0 -0 -0 -0 -0 -0 -0 -0 -0 -0 -0 -0 -0 -0 -0 -0 -0 -0 -8 -13 -48 -62 -8 -52 -17 -61 -48 -24 -9 -9 -3 -29 -2 -4 -4 -2
-0 -0 -0 -0 -0 -0 -0 -0 -0 -0 -0 -0 -0 -0 -0 -0 -0 -0 -0 -0 -0 -0 -0 -0 -0 -0 -0 -20 -54 -17 -18 -19 -1 -18 -47 -80 -30 -27 -66 -91 -4 -6 -11 -2 -6
-0 -0 -0 -0 -0 -0 -0 -0 -0 -0 -0 -0 -0 -0 -0 -0 -0 -0 -0 -0 -0 -0 -0 -0 -0 -0 -0 -29 -4 -83 -8 -7 -9 -10 -80 -41 -21 -19 -111 -113 -7 -0 -7 -18 -57
-0 -0 -0 -0 -0 -0 -0 -0 -0 -0 -0 -0 -0 -0 -0 -0 -0 -0 -0 -0 -0 -0 -0 -0 -0 -0 -0 -0 -34 -15 -6 -15 -25 -4 -125 -61 -23 -0 -97 -102 -64 -3 -13 -18 -57
-0 -0 -0 -0 -0 -0 -0 -0 -0 -0 -0 -0 -0 -0 -0 -0 -0 -0 -0 -0 -0 -0 -0 -0 -0 -0 -0 -2 -14 -18 -22 -36 -34 -25 -61 -28 -0 -0 -65 -24 -13 -23 -18 -20 -38
-0 -0 -0 -0 -0 -0 -0 -0 -0 -0 -0 -0 -0 -0 -0 -0 -0 -0 -0 -0 -0 -0 -0 -0 -0 -0 -0 -24 -17 -33 -59 -12 -0 -40 -0 -0 -0 -0 -0 -34 -46 -56 -7 -9 -8
-0 -0 -0 -0 -0 -0 -0 -0 -0 -0 -0 -0 -0 -0 -0 -0 -0 -0 -0 -0 -0 -0 -0 -0 -0 -0 -0 -6 -9 -29 -43 -9 -2 -23 -3 -34 -39 -106 -0 -9 -66 -63 -63 -15 -92
-0 -0 -0 -0 -0 -0 -0 -0 -0 -0 -0 -0 -0 -0 -0 -0 -0 -0 -0 -0 -0 -0 -0 -0 -0 -0 -0 -0 -0 -4 -31 -38 -13 -4 -3 -12 -26 -41 -26 -183 -43 -101 -101 -58 -96
-0 -0 -0 -0 -0 -0 -0 -0 -0 -0 -0 -0 -0 -0 -0 -0 -0 -0 -0 -0 -0 -0 -0 -0 -3 -0 -0 -0 -0 -0 -16 -2 -6 -1 -16 -13 -8 -110 -0 -203 -147 -0 -101 -81 -60
-0 -0 -0 -0 -0 -0 -0 -0 -0 -0 -0 -0 -0 -0 -0 -0 -0 -0 -0 -0 -0 -0 -0 -0 -0 -0 -0 -0 -0 -2 -2 -25 -12 -2 -3 -11 -6 -65 -7 -0 -36 -0 -0 -63 -95
-0 -0 -0 -0 -0 -0 -0 -0 -0 -0 -0 -0 -0 -0 -0 -0 -0 -0 -0 -0 -0 -0 -0 -0 -0 -0 -0 -0 -0 -0 -1 -0 -12 -2 -4 -4 -6 -15 -67 -104 -194 -163 -0 -36 -38
-0 -0 -0 -0 -0 -0 -0 -0 -0 -0 -0 -0 -0 -0 -0 -0 -0 -0 -0 -0 -0 -0 -0 -0 -0 -0 -0 -0 -0 -0 -0 -0 -5 -2 -11 -3 -4 -24 -61 -47 -91 -138 -0 -0 -21
-0 -0 -0 -0 -0 -0 -0 -0 -0 -1 -0 -0 -0 -0 -0 -0 -0 -0 -0 -0 -0 -0 -0 -4 -0 -0 -0 -0 -0 -0 -0 -0 -3 -1 -0 -25 -1 -7 -9 -15 -32 -174 -30 -22 -48
-0 -0 -0 -0 -0 -0 -0 -0 -0 -4 -0 -0 -0 -0 -0 -0 -0 -0 -0 -4 -0 -0 -0 -6 -2 -0 -0 -0 -0 -10 -1 -0 -0 -63 -0 -63 -20 -19 -3 -12 -24 -49 -53 -56 -23
-0 -0 -0 -0 -0 -0 -0 -0 -0 -0 -0 -0 -0 -0 -0 -0 -0 -0 -0 -0 -0 -0 -0 -0 -8 -10 -0 -0 -0 -0 -0 -45 -11 -20 -27 -12 -32 -110 -6 -31 -39 -47 -68 -48 -22
-0 -0 -0 -0 -0 -0 -0 -0 -0 -0 -0 -0 -0 -0 -0 -4 -0 -3 -7 -0 -0 -0 -0 -0 -0 -5 -0 -0 -0 -4 -0 -0 -51 -0 -9 -8 -68 -82 -147 -77 -38 -22 -63 -103 -55
-0 -0 -0 -0 -0 -0 -0 -0 -0 -0 -0 -0 -0 -0 -0 -3 -0 -0 -2 -9 -0 -0 -0 -0 -0 -3 -15 -4 -12 -0 -27 -2 -11 -25 -32 -22 -26 -0 -0 -0 -9 -40 -73 -30 -47
-0 -0 -0 -0 -0 -0 -0 -0 -1 -3 -0 -0 -0 -0 -0 -0 -0 -0 -0 -0 -0 -0 -0 -0 -0 -0 -2 -3 -8 -5 -11 -2 -9 -25 -18 -0 -7 -0 -0 -38 -21 -71 -99 -66 -38
-0 -0 -0 -0 -0 -0 -0 -0 -0 -0 -0 -0 -0 -0 -0 -0 -0 -0 -0 -1 -0 -0 -0 -0 -0 -0 -0 -0 -2 -11 -7 -3 -23 -10 -12 -119 -0 -0 -0 -39 -23 -89 -179 -0 -150
-0 -0 -0 -0 -0 -0 -0 -0 -7 -0 -0 -0 -0 -0 -0 -0 -0 -0 -0 -0 -0 -0 -0 -0 -0 -0 -0 -0 -0 -0 -3 -12 -19 -0 -33 -17 -0 -0 -0 -19 -6 -24 -149 -0 -0
-0 -0 -0 -0 -0 -1 -0 -0 -6 -7 -6 -0 -0 -0 -0 -0 -2 -5 -0 -2 -0 -0 -0 -0 -0 -0 -0 -0 -0 -0 -0 -0 -0 -2 -0 -0 -0 -201 -153 -0 -1 -1 -1 -34 -0
-0 -0 -0 -0 -0 -0 -0 -0 -0 -2 -6 -9 -0 -0 -1 -0 -0 -0 -0 -0 -0 -0 -0 -0 -0 -0 -0 -0 -0 -0 -0 -1 -1 -0 -37 -5 -64 -0 -157 -169 -0 -9 -0 -1 -11
Wind_Speed
8 8 8 7 7 7 7 9 11 12 14 18 19 18 19 20 21 14 14 6 7 13 14 18 15 16 15 18 10 18 17 15 12 8 7 10 9 13 21 17 18 16 22 22 23
7 7 7 7 7 7 6 7 8 9 12 15 18 20 20 21 21 16 5 8 9 11 17 16 15 13 16 14 14 18 12 14 8 15 14 10 10 14 18 19 19 22 22 20 23
8 7 7 7 7 7 7 7 8 9 10 14 19 20 20 20 14 9 7 7 7 11 19 21 18 17 17 17 17 15 20 20 15 13 11 11 11 9 21 19 15 21 24 22 22
6 6 6 7 8 7 7 8 9 8 8 10 15 20 20 14 14 14 9 7 6 11 19 18 16 16 17 19 18 15 18 16 15 14 6 13 13 10 10 12 21 21 22 23 22
7 7 7 7 8 8 6 6 6 5 6 7 11 17 13 11 16 16 10 7 7 10 16 15 16 14 20 19 15 15 14 17 16 15 19 8 13 13 13 17 13 19 20 25 23
8 8 7 7 7 7 7 5 5 4 7 10 12 15 12 13 18 13 10 8 10 10 8 8 16 22 21 13 18 15 15 16 17 15 10 9 12 10 11 6 11 18 21 25 24
10 8 8 8 8 8 8 5 5 8 11 13 14 14 10 15 15 12 10 9 9 7 12 9 25 22 17 20 18 13 13 14 12 13 12 8 9 9 16 14 11 19 21 23 26
11 10 9 9 8 8 6 5 7 11 13 14 13 13 16 14 17 10 10 9 8 13 24 20 17 21 25 13 10 23 7 11 12 13 13 10 5 26 19 16 14 22 14 13 23
13 11 10 9 8 8 6 6 11 13 14 15 15 14 15 14 8 8 11 13 7 5 6 20 15 13 26 9 19 21 19 16 19 16 14 14 6 24 25 20 22 23 17 21 23
15 12 10 10 10 11 7 12 14 14 14 12 8 11 13 15 12 11 12 13 9 8 10 10 10 11 5 5 20 19 23 20 12 8 12 11 9 8 36 26 25 25 29 15 25
18 14 12 11 11 10 11 15 16 15 13 14 18 17 14 17 13 11 9 9 9 7 7 5 8 10 19 9 22 10 13 18 10 9 9 13 13 11 19 26 31 29 26 29 24
20 16 14 13 13 9 14 17 23 19 16 18 17 18 14 14 15 12 18 9 8 10 18 9 3 20 23 19 3 6 11 20 12 7 9 12 14 9 9 35 32 33 29 25 22
22 18 17 16 14 9 11 18 17 17 12 17 17 17 17 15 15 12 20 13 18 19 15 14 6 14 16 18 22 20 16 17 14 11 12 11 16 8 22 24 12 34 35 29 28
24 21 20 20 12 11 11 17 17 19 14 14 13 17 15 16 14 12 20 19 20 13 13 15 10 11 11 21 20 24 15 14 16 17 23 22 26 11 11 16 30 28 16 38 26
25 24 21 12 7 11 17 15 17 11 18 15 16 15 15 13 14 14 16 15 16 14 7 9 9 6 10 9 21 21 21 25 29 28 30 23 28 17 1 11 22 23 17 17 29
26 25 25 10 7 7 8 7 8 12 16 14 14 13 14 14 15 14 13 13 19 13 6 22 17 8 8 5 5 23 23 25 27 28 32 31 25 15 11 19 18 21 39 36 31
28 27 11 8 7 15 16 7 10 11 16 13 12 13 10 12 14 13 12 11 9 10 7 7 4 10 13 11 7 5 25 28 24 25 28 20 24 19 11 11 3 6 18 40 30
31 29 7 3 4 4 8 7 9 12 14 15 15 13 14 12 11 13 12 8 12 6 20 15 6 7 6 4 11 6 18 29 24 24 27 35 22 19 17 7 8 7 13 14 26
33 13 8 4 6 4 6 3 4 13 15 15 10 17 10 12 16 13 10 15 15 19 21 20 12 11 16 10 17 20 13 29 29 20 27 25 17 17 12 4 4 3 6 14 27
24 15 2 6 6 3 3 4 15 19 16 15 23 14 19 8 12 11 11 12 14 13 18 19 13 8 8 12 21 29 21 26 25 22 26 18 18 22 13 6 7 6 4 11 17
17 14 9 7 4 1 4 2 1 11 12 13 20 24 19 17 13 18 13 11 11 15 15 20 21 14 14 8 7 6 3 20 19 22 26 24 20 21 26 25 5 1 6 8 30
19 16 3 4 3 3 5 5 26 16 9 12 18 24 23 19 15 13 14 15 15 20 20 24 21 22 17 19 13 14 24 28 28 23 27 27 26 24 25 21 3 10 15 15 16
18 11 6 3 6 5 5 23 27 9 8 11 14 13 18 21 18 21 15 13 15 18 19 22 14 13 15 20 8 16 18 22 26 16 24 26 29 25 26 26 4 9 15 17 14
18 17 8 10 10 11 20 8 18 10 24 11 15 14 16 16 15 16 13 14 12 14 18 18 16 19 25 22 17 14 31 28 23 29 28 32 33 27 24 23 1 6 11 15 17
16 19 23 21 13 7 37 34 22 11 7 16 15 15 14 16 13 10 15 12 11 10 15 12 17 22 27 30 31 32 31 21 33 28 32 32 32 29 25 35 6 8 8 13 16
20 28 27 29 30 26 13 23 25 11 8 10 15 14 15 15 17 16 16 16 18 11 14 11 21 22 26 29 30 29 34 35 30 31 36 18 34 17 17 34 6 13 15 9 14
26 27 26 26 30 27 22 19 20 24 20 14 12 10 14 12 13 15 17 20 23 16 21 19 20 24 30 30 31 32 26 31 34 35 35 41 32 22 27 31 17 19 20 15 13
Wind_Direction
245 241 234 221 216 203 204 228 236 241 240 260 260 245 242 243 238 150 143 75 102 330 219 189 161 189 189 216 149 358 301 279 22 336 339 8 261 9 89 89 74 54 104 101 105
230 233 228 222 214 202 192 198 210 219 229 240 253 269 266 266 235 173 92 38 353 333 151 160 158 153 190 191 6 346 59 358 71 67 278 4 60 51 86 102 81 86 95 99 114
241 233 228 225 220 222 217 213 214 216 216 236 261 270 275 277 329 360 54 83 84 118 174 214 207 201 204 203 331 15 355 33 56 42 302 344 255 345 144 108 81 100 110 111 115
229 226 223 226 234 222 217 227 227 218 203 201 230 281 288 319 2 349 28 51 59 126 181 189 175 178 195 282 227 359 9 29 40 58 341 258 291 338 289 225 98 102 107 120 121
243 241 243 236 240 235 212 213 217 188 156 120 66 343 358 34 338 7 29 63 87 116 158 154 160 155 260 215 349 348 35 36 38 71 118 340 297 245 39 127 76 101 108 133 129
253 249 241 237 240 237 233 217 209 146 105 87 60 356 29 356 340 12 34 67 116 123 111 126 282 260 302 290 319 325 165 49 57 66 348 32 304 29 294 324 81 101 118 135 136
262 256 247 245 247 252 246 221 165 99 86 86 75 37 42 344 347 16 42 77 109 110 314 335 241 286 315 300 301 15 41 34 30 22 337 346 322 22 262 267 87 113 124 132 157
269 261 254 251 248 254 243 197 117 87 86 84 73 64 4 348 312 11 12 3 340 305 256 288 297 292 277 333 345 234 22 349 1 5 354 327 331 212 249 252 152 127 104 100 143
274 264 256 250 249 255 236 131 93 80 78 73 65 54 15 11 48 29 334 326 17 34 355 290 308 310 238 319 274 282 303 303 295 319 343 319 39 174 241 233 224 142 119 147 223
275 265 253 251 255 258 237 83 69 69 69 82 132 48 47 23 19 348 329 314 343 353 333 324 321 310 346 304 285 283 291 322 329 20 348 5 10 112 223 229 218 219 197 130 150
284 267 256 248 250 244 41 58 45 50 65 45 25 15 27 8 31 88 354 30 348 358 345 12 317 303 283 324 295 320 311 292 349 8 32 345 11 121 164 237 225 217 218 189 149
286 270 260 251 250 222 59 49 25 31 42 40 44 33 11 54 42 39 147 97 43 105 155 27 6 273 271 308 8 317 319 269 316 355 343 338 329 44 342 221 231 213 222 225 232
288 276 265 257 250 86 83 37 46 43 55 39 25 21 42 125 10 32 149 295 151 169 141 156 148 151 297 294 280 280 288 304 319 315 330 342 314 26 224 246 210 227 213 222 232
292 281 272 268 57 65 67 35 40 36 44 49 79 30 87 95 24 21 219 230 191 138 124 157 26 347 339 283 282 270 288 296 304 299 288 297 281 303 146 157 178 182 181 229 247
293 284 269 27 94 66 15 35 27 71 13 19 10 28 88 158 47 62 269 249 167 320 13 67 35 80 159 144 287 287 299 285 288 290 285 292 282 292 72 150 181 184 186 230 191
287 282 281 42 81 147 181 169 92 44 11 20 28 61 103 55 41 26 79 200 262 330 28 242 324 8 126 27 340 296 295 294 287 285 274 277 279 287 290 188 186 189 197 178 177
288 277 8 20 78 351 353 71 33 34 16 12 336 32 91 24 29 70 70 85 60 46 87 86 104 347 321 344 11 354 281 277 281 281 280 296 287 291 280 296 158 293 177 180 175
288 277 18 110 95 98 45 58 31 22 10 357 333 355 311 1 29 27 43 88 31 110 283 344 27 105 40 130 162 38 191 265 283 283 283 278 293 294 308 298 332 88 146 184 171
291 3 19 58 145 54 38 45 108 358 1 347 6 300 331 357 326 4 20 355 10 323 313 329 9 49 323 352 198 305 303 262 265 278 283 279 301 304 328 4 334 82 141 175 179
336 343 10 86 86 57 355 194 263 321 344 341 272 309 293 352 4 25 5 24 10 22 306 262 345 40 25 346 287 268 305 274 270 276 276 292 285 284 303 330 316 301 1 261 192
342 345 47 62 61 5 275 254 122 346 355 346 290 275 286 316 340 317 357 22 9 1 358 315 318 357 339 27 23 18 5 297 288 287 281 283 283 270 284 287 294 38 352 133 202
322 320 39 52 333 237 241 202 232 316 354 336 308 275 283 303 323 331 336 347 353 326 328 311 314 306 324 310 356 332 291 266 261 277 280 281 266 260 240 224 237 329 308 303 287
318 312 357 338 285 233 232 203 215 303 325 330 322 322 313 292 307 298 331 4 347 335 335 323 344 335 332 306 342 312 311 282 275 311 292 275 271 285 273 291 332 335 313 306 301
313 315 313 316 288 204 214 196 282 306 278 315 313 322 317 316 313 314 327 330 355 343 331 326 326 316 301 317 325 325 254 284 297 283 268 263 262 273 232 219 347 324 327 313 292
308 299 303 297 308 234 230 261 282 287 295 297 306 307 315 316 318 320 314 332 343 352 336 335 320 314 300 291 287 277 279 304 270 280 274 265 269 259 285 221 314 297 320 323 316
299 300 298 286 280 288 274 277 282 289 276 297 292 303 308 311 311 321 324 323 314 335 340 334 312 313 306 300 294 251 269 264 284 272 256 289 265 306 312 176 37 305 296 323 328
302 300 293 285 281 283 287 282 275 282 286 291 297 287 300 305 308 327 329 315 308 311 302 313 314 310 295 298 292 278 297 278 273 261 263 269 275 305 294 284 293 294 280 295 317